User: anonymous   Login
Location: Unspecified
(0.0000°N, 0.0000°E)
Time: 02:55:01
(UTC+00:00)
Language:

IGS 7A - Orbit

View from above orbital plane
View from above orbital plane
View from above satellite
View from above satellite

Ground track
Ground track

The orbit data is extracted from the following two-line orbital elements,

1 37954U 11075A   18252.87972883 0.00000000  00000-0  00000-0 0    05
2 37954  97.5049 328.4806 0003001 326.1778  33.8221 15.17620164    05
Epoch (UTC): 09 September 2018 21:06:48
Eccentricity: 0.0003001
inclination: 97.5049°
perigee height: 511 km
apogee height: 515 km
right ascension of ascending node: 328.4806°
argument of perigee: 326.1778°
revolutions per day: 15.17620164
mean anomaly at epoch: 33.8221°
orbit number at epoch: 0

The dashed part of the orbit path shows where the satellite is in the earth's shadow,  

DLR